EHI
0 0 0 0 0 0 0 0 0 0 0 0 0 0 0 0 0 0 0 0 0 0 0 0 0 0 0 0 0 0 0 0 0 0 0 0 0 0 0 0 0 0 0 0
0 0 0 0 0 0 0 0 0 0 0 0 0 0 0 0 0 0 0 0 0 0 0 0 0 0 0 0 0 0 0 0 0 0 0 0 0 0 0 0 0 0 0 0
0 0 0 0 0 0 0 0 0 0 0 0 0 0 0 0 0 0 0 0 0 0 0 0 0 0 0 0 0 0 0 0 0 0 0 0 0 0 0 0 0 0 0 0
0 0 0 0 0 0 0 0 0 0 0 0 0 0 0 0 0 0 0 0 0 0 0 0 0 0 0 0 0 0 0 0 0 0 0 0 0 0 0 0 0 0 0 0
0 0 0 0 0 0 0 0 0 0 0 0 0 0 0 0 0 0 0 0 0 0 0 0 0 0 0 0 0 0 0 0 0 0 0 0 0 0 0 0 0 0 0 0
0 0 0 0 0 0 0 0 0 0 0 0 0 0 0 0 0 0 0 0 0 0 0 0 0 0 0 0 0 0 0 0 0 0 0 0 0 0 0 0 0 0 0 0
0 0 0 0 0 0 0 0 0 0 0 0 0 0 0 0 0 0 0 0 0 0 0 0 0 0 0 0 0 0 0 0 0 0 0 0 0 0 0 0 0 0 0 0
0 0 0 0 0 0 0 0 0 0 0 0 0 0 0 0 0 0 0 0 0 0 0 0 0 0 0 0 0 0 0 0 0 0 0 0 0 0 0 0 0 0 0 0
0 0 0 0 0 0 0 0 0 0 0 0 0 0 0 0 0 0 0 0 0 0 0 0 0 0 0 0 0 0 0 0 0 0 0 0 0 0 0 0 0 0 0 0
0 0 0 0 0 0 0 0 0 0 0 0 0 0 0 0 0 0 0 0 0 0 0 0 0 0 0 0 0 0 0 0 0 0 0 0 0 0 0 0 0 0 0 0
0 0 0 0 0 0 0 0 0 0 0 0 0 0 0 0 0 0 0 0 0 0 0 0 0 0 0 0 0 0 0 0 0 0 0 0 0 0 0 0 0 0 0 0
0 0 0 0 0 0 0 0 0 0 0 0 0 0 0 0 0 0 0 0 0 0 0 0 0 0 0 0 0 0 0 0 0 0 0 0 0 0 0 0 0 0 0 0
0 0 0 0 0 0 0 0 0 0 0 0 0 0 0 0 0 0 0 0 0 0 0 0 0 0 0 0 0 0 0 0 0 0 0 0 0 0 0 0 0 0 0 0
0 0 0 0 0 0 0 0 0 0 0 0 0 0 0 0 0 0 0 0 0 0 0 0 0 0 0 0 0 0 0 0 0 0 0 0 0 0 0 0 0 0 0 0
0 0 0 0 0 0 0 0 0 0 0 0 0 0 0 0 0 0 0 0 0 0 0 0 0 0 0 0 0 0 0 0 0 0 0 0 0 0 0 0 0 0 0 0
0 0 0 0 0 0 0 0 0 0 0 0 0 0 0 0 0 0 0 0 0 0 0 0 0 0 0 0 0 0 0 0 0 0 0 0 0 0 0 0 0 0 0 0
0 0 0 0 0 0 0 0 0 0 0 0 0 0 0 0 0 0 0 0 0 0 0 0 0 0 0 0 0 0 0 0 0 0 0 0 0 0 0 0 0 0 0 0
0 0 0 0 0 0 0 0 0 0 0 0 0 0 0 0 0 0 0 0 0 0 0 0 0 0 0 0 0 0 0 0 0 0 0 0 0 0 0 0 0 0 0 0
0 0 0 0 0 0 0 0 0 0 0 0 0 0 0 0 0 0 0 0 0 0 0 0 0 0 0 0 0 0 0 0 0 0 0 0 0 0 0 0 0 0 0 0
0 0 0 0 0 0 0 0 0 0 0 0 0 0 0 0 0 0 0 0 0 0 0 0 0 0 0 0 0 0 0 0 0 0 0 0 0 0 0 0 0 0 0 0
0 0 0 0 0 0 0 0 0 0 0 0 0 0 0 0 0 0 0 0 0 0 0 0 0 0 0 0 0 0 0 0 0 0 0 0 0 0 0 0 0 0 0 0
0 0 0 0 0 0 0 0 0 0 0 0 0 0 0 0 0 0 0 0 0 0 0 0 0 0 0 0 0 0 0 0 0 0 0 0 0 0 0 0 0 0 0 0
0 0 0 0 0 0 0 0 0 0 0 0 0 0 0 0 0 0 0 0 0 0 0 0 0 0 0 0 0 0 0 0 0 0 0 0 0 0 0 0 0 0 0 0
0 0 0 0 0 0 0 0 0 0 0 0 0 0 0 0 0 0 0 0 0 0 0 0 0 0 0 0 0 0 0 0 0 0 0 0 0 0 0 0 0 0 0 0
0 0 0 0 0 0 0 0 0 0 0 0 0 0 0 0 0 0 0 0 0 0 0 0 0 0 0 0 0 0 0 0 0 0 0 0 0 0 0 0 0 0 0 0
0 0 0 0 0 0 0 0 0 0 0 0 0 0 0 0 0 0 0 0 0 0 0 0 0 0 0 0 0 0 0 0 0 0 0 0 0 0 0 0 0 0 0 0
0 0 0 0 0 0 0 0 0 0 0 0 0 0 0 0 0 0 0 0 0 0 0 0 0 0 0 0 0 0 0 0 0 0 0 0 0 0 0 0 0 0 0 0
Wind_Speed
9 9 7 8 8 8 10 10 9 10 10 9 6 5 4 3 3 4 4 3 2 3 3 3 3 3 3 3 3 3 3 3 4 3 3 3 4 4 4 4 5 5 4 4
8 7 7 10 10 9 10 10 11 12 12 7 5 4 4 4 4 4 4 3 3 3 3 4 4 4 4 4 3 3 3 4 4 4 4 4 4 4 4 4 4 4 5 5
6 4 6 9 7 7 6 5 5 9 9 5 5 5 5 5 5 5 4 4 4 4 3 4 4 4 4 4 3 3 4 4 4 4 4 4 4 4 4 4 4 5 5 5
4 4 8 5 1 2 4 5 4 5 5 4 4 5 5 5 4 5 5 4 5 5 4 4 4 4 4 3 3 4 4 4 4 4 5 4 4 5 4 4 4 4 5 5
3 5 8 4 2 3 2 6 3 4 6 6 5 5 4 3 4 5 5 5 5 4 4 4 4 4 3 3 3 4 4 4 4 4 4 4 5 5 4 3 4 4 4 5
4 4 6 4 4 5 2 5 4 4 4 5 5 5 5 5 6 6 5 4 4 4 3 4 4 3 3 3 3 4 5 4 4 4 5 5 5 4 3 3 4 4 5 5
5 5 5 3 5 4 0 6 6 4 4 4 4 5 6 7 6 5 5 5 4 4 4 4 4 3 3 4 4 4 4 4 4 4 4 4 4 3 3 4 4 4 5 5
3 5 6 4 3 0 4 5 5 5 5 4 5 6 6 7 7 6 6 5 5 4 5 4 3 3 4 4 4 3 3 4 4 4 4 3 3 3 3 4 4 4 4 4
4 5 2 0 2 3 4 5 5 5 6 5 6 7 7 7 7 7 6 6 5 4 5 4 3 2 4 4 3 3 3 4 4 4 3 3 3 3 3 3 3 3 3 4
3 4 4 3 3 4 4 5 5 5 5 5 6 7 7 7 7 7 6 6 5 5 5 5 4 3 3 3 3 3 3 3 3 3 3 3 3 3 3 3 3 4 4 4
4 5 6 4 5 6 6 5 6 6 5 5 5 6 6 7 7 6 6 6 4 4 5 5 5 4 3 3 2 3 3 3 3 3 3 3 3 3 3 4 5 5 4 4
5 4 5 7 6 7 6 6 6 6 6 6 5 5 6 6 6 6 6 6 5 5 5 5 5 5 4 3 2 3 3 2 2 2 2 2 2 2 4 4 6 7 7 6
4 6 5 5 6 6 5 6 6 5 5 6 6 5 5 6 6 6 7 6 6 6 5 5 5 5 5 3 3 3 3 3 2 2 2 2 2 2 2 3 5 5 6 6
5 5 5 5 6 6 6 6 5 5 5 5 5 5 5 6 6 7 7 7 6 6 5 4 4 5 5 4 3 3 3 3 2 2 2 2 2 2 2 2 2 3 4 5
6 5 4 5 5 6 5 5 5 6 6 6 5 5 6 6 6 7 7 6 6 6 6 5 5 5 5 4 3 3 3 2 2 1 1 1 2 2 2 2 2 2 2 3
7 6 5 5 6 6 6 6 6 6 6 6 6 6 6 6 6 6 6 6 6 6 6 5 5 5 5 4 4 3 2 3 3 1 1 1 1 1 1 2 2 2 3 3
6 6 6 7 7 7 6 6 5 6 6 6 7 6 6 6 6 7 7 6 5 6 6 6 5 5 5 4 4 3 2 2 4 2 1 1 1 1 1 2 2 2 3 4
4 5 5 5 6 7 7 6 6 6 6 6 6 6 6 6 6 7 7 7 6 6 6 5 5 5 4 4 3 2 2 2 2 2 2 2 2 1 1 2 2 3 3 4
5 5 5 5 5 5 5 6 6 6 6 6 6 6 6 6 6 6 6 6 6 7 7 6 8 5 4 4 5 2 2 2 2 2 2 3 3 2 2 2 2 2 3 3
6 5 5 5 5 5 5 5 5 5 5 5 6 6 7 7 6 6 6 5 5 5 6 7 5 4 4 4 5 2 2 2 2 2 2 2 2 2 2 2 2 3 3 3
6 6 6 6 6 6 5 5 5 5 5 5 5 6 7 7 6 6 6 6 6 6 7 8 5 4 4 4 4 2 2 2 2 2 2 2 2 2 2 3 3 3 3 3
6 6 6 6 6 6 6 5 5 5 5 5 6 6 7 7 7 6 5 5 6 9 6 4 4 5 7 5 2 2 2 2 2 2 2 2 2 2 3 3 3 3 3 3
5 5 6 6 6 6 6 5 5 5 5 6 6 6 6 6 5 5 6 5 5 9 6 4 7 9 9 4 2 2 2 2 2 2 2 2 2 2 3 3 3 3 3 3
6 6 6 6 6 6 7 6 5 5 5 5 5 5 5 5 5 4 4 8 11 10 5 7 10 10 8 3 2 2 2 2 2 2 2 2 2 2 3 3 3 3 4 4
5 5 5 6 6 5 6 6 6 5 5 5 6 5 4 3 4 5 5 6 9 9 5 7 10 10 5 3 3 3 2 3 3 3 2 3 3 3 3 3 3 4 4 4
5 4 4 5 4 5 5 5 5 5 5 5 5 5 5 4 4 4 4 5 6 8 6 4 5 5 3 3 3 3 3 4 4 3 3 3 3 3 3 4 5 4 4 4
5 4 4 4 4 5 5 5 5 5 5 6 6 6 5 5 5 5 5 4 4 5 4 4 4 4 4 3 3 3 3 3 3 3 3 3 3 3 4 4 4 4 4 4
Wind_Direction
267 277 274 263 254 225 221 229 241 260 268 272 280 280 287 303 311 310 306 315 323 312 303 294 285 276 266 261 247 242 233 229 232 233 232 233 226 224 225 228 237 234 231 230
274 260 265 273 264 242 239 243 252 268 275 288 304 310 308 313 311 301 299 307 305 299 295 289 286 281 277 265 257 245 240 242 240 235 233 232 230 225 226 230 234 231 230 228
271 285 296 270 253 229 236 240 241 253 265 302 310 304 298 304 304 298 299 299 300 292 282 281 279 272 264 261 258 248 243 243 241 234 232 231 231 228 226 229 232 234 231 226
275 291 250 251 355 233 232 259 259 273 295 309 302 300 295 293 295 300 300 297 299 294 289 283 278 275 267 260 254 248 244 240 240 238 237 235 232 232 231 233 231 233 234 230
258 265 269 282 352 351 278 280 287 278 302 316 321 314 300 315 331 309 300 291 286 284 281 282 280 276 271 264 255 250 250 247 242 239 239 237 236 236 233 234 235 236 238 232
248 260 265 290 331 328 315 278 336 329 307 317 338 315 302 333 328 315 311 305 298 301 302 295 290 285 278 271 262 253 254 256 252 243 239 237 236 238 235 234 236 238 244 237
244 251 264 323 336 348 284 288 332 333 317 312 304 281 301 320 319 315 311 311 313 313 303 292 291 286 275 271 265 267 269 261 256 248 242 241 237 234 226 230 231 235 243 243
230 240 264 2 23 305 274 315 328 331 327 318 310 311 317 320 321 321 319 318 320 312 301 296 287 274 272 271 273 276 271 262 257 254 249 244 234 233 228 221 226 233 239 245
206 226 286 48 252 285 316 318 322 328 326 321 315 315 319 320 320 319 317 317 317 311 309 308 298 276 270 279 281 279 269 259 255 258 254 249 236 229 229 222 224 235 237 243
268 270 291 301 312 328 331 319 321 322 320 321 314 315 318 319 320 320 319 320 323 325 321 318 319 309 283 288 285 271 265 257 252 251 251 246 242 233 227 224 227 233 237 242
270 293 310 319 340 336 335 335 334 330 323 318 318 318 318 318 319 319 318 323 328 323 317 316 322 320 310 300 293 286 272 253 248 246 244 243 246 243 241 233 233 240 240 238
271 294 294 304 328 335 329 328 329 328 328 330 328 318 320 318 319 320 321 326 327 323 318 317 320 316 312 306 292 281 277 256 246 249 246 244 250 275 272 267 267 266 264 264
295 317 315 315 327 338 330 329 331 332 325 323 329 328 326 322 324 326 328 330 327 320 316 314 314 311 312 313 301 280 269 267 253 248 247 250 250 254 279 288 280 278 274 275
336 331 322 326 327 335 336 334 332 330 327 327 325 327 328 326 327 330 328 325 324 323 319 315 315 314 316 315 306 293 278 274 269 251 252 257 261 264 260 268 288 297 294 289
343 341 321 324 331 334 336 334 334 333 334 335 335 333 334 331 328 325 322 324 328 329 326 324 322 316 319 317 309 299 285 269 268 262 260 266 272 275 274 276 281 291 304 300
330 336 338 336 331 330 333 334 334 332 334 334 335 333 332 327 323 322 326 332 332 327 324 323 321 322 332 332 327 324 316 310 315 295 275 273 272 276 283 287 290 291 289 293
337 332 333 329 325 324 326 326 324 323 327 328 327 328 331 331 331 331 331 332 324 317 318 318 319 328 333 334 333 329 331 324 322 325 307 292 284 282 286 288 294 299 296 295
326 319 318 317 318 319 322 327 327 326 324 321 324 330 332 330 325 323 324 326 326 325 324 324 326 329 331 331 327 325 331 326 319 313 315 310 307 301 301 299 298 302 310 308
337 332 330 327 323 320 321 324 325 326 326 327 328 326 323 321 319 318 321 326 326 325 326 327 328 336 331 326 329 332 332 330 329 326 326 317 327 328 319 312 308 308 309 313
339 337 335 334 335 330 325 322 322 325 327 328 326 325 325 324 323 323 322 317 310 307 312 320 326 326 324 323 331 338 332 326 323 324 329 327 323 323 324 320 317 313 311 314
336 335 335 334 332 331 326 323 324 324 326 327 323 318 316 317 320 321 320 316 318 320 322 325 332 327 325 329 336 344 336 331 328 321 319 320 321 320 320 320 318 315 314 318
330 330 329 328 328 327 326 326 324 322 325 325 322 320 320 321 322 317 307 300 312 321 328 324 324 324 329 336 347 340 337 336 332 329 325 324 321 318 319 319 316 313 313 315
326 325 326 326 324 321 324 326 325 324 323 322 320 319 317 315 315 314 315 319 319 323 329 321 325 330 334 349 350 339 334 331 328 324 320 318 312 309 309 309 308 308 312 315
326 328 327 327 328 329 329 328 328 324 319 315 314 313 313 315 314 309 307 318 325 325 328 326 331 335 343 359 348 340 334 327 323 321 320 317 313 311 310 310 310 311 312 312
328 328 331 333 335 331 328 329 329 328 327 326 325 324 320 312 307 313 317 319 322 327 328 328 334 339 350 350 343 337 333 324 320 324 324 322 318 316 313 311 308 309 309 308
328 327 325 324 326 327 331 333 331 331 332 330 330 331 330 326 317 315 317 320 323 330 334 330 331 336 343 340 336 333 331 326 329 331 325 318 315 312 309 308 307 305 304 303
331 333 334 335 336 339 337 335 333 332 332 326 324 328 331 331 334 336 335 334 335 338 337 339 343 345 342 339 335 333 331 328 324 319 315 312 309 306 303 300 301 302 302 301